CAPE
0 0 0 0 0 0 0 0 0 0 0 0 0 0 0 0 0 0 0 0 0 0 0 0 0 0 0 0 0 0 0 0 0 0 0 0 0 1 0 0 0 3 10 37 97 228 32 20 147 141 195 194 133 130
0 0 0 0 0 0 0 0 0 0 0 0 0 0 0 0 0 0 0 0 0 0 0 0 0 0 0 0 0 0 0 0 0 0 0 0 0 0 0 0 5 11 6 3 10 30 1 0 1 4 3 8 56 85
0 0 0 0 0 0 0 0 0 0 0 0 0 0 0 0 0 0 0 0 0 0 0 0 0 0 0 0 0 0 0 0 0 0 0 0 0 0 3 11 2 19 20 17 7 17 30 25 17 27 40 21 4 24
0 0 0 0 0 0 0 0 0 0 0 0 0 0 0 0 0 0 0 0 0 0 0 0 0 0 0 0 0 0 0 0 0 0 0 7 9 0 8 7 4 5 9 0 0 0 0 9 6 9 5 12 7 21
1 0 0 0 0 0 0 0 0 0 0 0 0 0 0 0 0 0 0 0 0 0 0 0 0 0 0 0 0 0 0 0 0 1 5 0 9 9 7 9 0 7 10 19 11 6 4 0 1 13 13 15 14 26
1 0 0 0 0 0 0 0 0 0 0 0 0 0 0 0 0 0 0 0 0 0 0 0 0 0 0 0 0 0 0 0 0 1 4 8 9 2 2 4 4 23 8 3 0 0 1 0 3 10 20 17 2 17
1 1 0 0 0 0 0 0 0 0 0 0 0 0 0 0 0 0 0 0 0 0 0 0 0 0 0 0 0 0 0 0 0 4 13 6 0 9 16 17 22 17 6 2 2 8 8 11 5 5 13 5 13 26
1 1 0 0 0 0 0 0 0 0 0 0 0 0 0 0 0 0 0 0 0 0 0 0 0 0 0 0 5 1 4 4 12 1 21 9 10 25 19 22 5 0 0 7 24 47 30 28 26 26 27 28 27 18
0 0 0 0 0 0 0 0 0 0 0 0 0 0 0 0 0 0 0 0 0 0 0 0 0 2 0 1 3 3 1 6 1 12 5 24 26 35 18 5 0 0 7 18 8 21 15 0 0 1 3 3 3 1
0 0 0 0 0 0 0 0 0 0 0 0 0 0 0 0 0 0 0 0 0 0 0 0 0 1 0 11 26 30 17 9 11 6 18 21 16 33 11 0 0 1 5 0 5 5 0 0 0 2 2 4 6 5
0 1 1 0 0 0 0 0 0 0 0 0 0 0 0 0 0 0 0 0 0 0 0 0 0 4 0 3 30 26 2 3 11 14 15 5 12 4 6 0 2 0 0 0 0 5 1 1 3 3 1 4 4 6
0 0 1 0 0 0 0 0 0 0 0 0 0 0 0 0 0 0 0 0 0 0 0 0 0 0 7 0 14 14 14 20 20 16 24 11 1 0 3 5 5 0 0 0 0 0 3 0 0 5 4 5 6 5
1 1 1 0 0 0 0 0 0 0 0 0 0 0 0 0 0 0 0 0 1 0 1 5 9 1 1 0 18 17 11 12 18 14 13 18 1 1 11 14 5 0 0 0 0 0 2 4 0 0 3 1 4 3
1 1 0 0 0 0 0 0 0 0 0 0 0 0 0 0 0 0 0 13 15 18 12 10 15 4 18 20 16 5 14 19 8 3 10 8 3 12 21 9 1 0 0 0 0 0 0 0 0 5 7 4 8 3
1 0 1 0 1 0 0 0 0 0 0 0 0 0 0 0 0 0 0 0 0 16 37 15 18 12 15 30 23 14 16 8 2 8 19 32 17 1 27 20 1 0 0 0 0 0 0 0 0 5 0 0 0 3
0 1 3 0 0 0 0 0 0 0 0 0 0 2 6 0 2 0 0 2 14 17 36 34 36 16 20 20 18 15 11 5 21 30 47 99 25 11 35 39 3 0 0 0 0 0 0 0 0 0 5 0 0 4
2 1 0 0 0 0 0 0 0 0 0 1 0 0 4 7 2 6 8 18 27 17 14 35 22 27 53 45 19 18 32 49 20 34 96 162 23 29 38 38 16 0 0 0 0 0 0 0 0 0 0 0 0 0
2 2 2 1 0 1 0 0 0 0 1 0 1 5 12 5 0 0 10 16 7 25 48 29 34 20 23 26 31 33 61 52 28 41 113 116 101 131 43 78 40 0 0 0 0 0 0 0 0 0 0 0 0 0
1 3 2 0 0 0 0 0 0 2 3 3 6 6 11 6 2 0 0 14 12 33 42 76 35 17 13 19 70 42 37 16 32 35 117 224 167 150 34 71 81 12 0 0 0 0 0 0 0 0 0 0 0 0
1 2 0 0 0 0 0 1 0 2 5 7 5 7 2 5 1 1 0 0 4 12 26 29 25 20 17 26 23 28 45 41 42 42 23 84 40 153 160 33 54 24 14 0 0 0 0 0 0 0 0 0 0 0
3 4 6 7 1 0 0 5 2 1 16 18 14 19 13 11 6 1 3 7 20 0 5 19 30 21 31 63 33 46 37 45 42 41 44 97 40 57 78 49 32 35 12 0 0 0 0 0 0 0 0 0 0 0
3 4 4 3 0 2 1 0 2 12 16 14 17 16 12 15 14 1 2 1 0 1 1 25 37 46 37 64 38 34 5 23 29 36 25 14 13 47 102 145 53 49 36 0 0 0 0 0 0 0 0 0 0 0
3 4 0 0 1 3 0 9 13 9 7 7 10 7 8 8 3 12 0 0 0 0 3 17 35 27 18 13 9 2 13 26 29 35 27 47 96 185 150 56 42 49 34 2 0 0 0 0 0 0 0 0 0 0
3 0 0 1 3 1 9 11 6 10 10 6 9 17 30 33 23 1 0 0 0 0 2 11 6 7 5 1 1 4 9 5 17 30 50 157 85 12 2 17 51 42 4 0 0 0 0 0 0 0 0 0 0 0
1 2 3 1 13 23 20 18 18 10 5 7 4 15 32 49 40 19 33 41 12 26 24 23 23 36 26 32 37 20 21 25 45 69 20 39 6 0 0 0 0 0 0 0 0 0 0 0 0 0 0 0 0 0
1 8 0 12 14 16 15 28 18 8 14 13 3 26 20 21 13 15 40 76 80 90 155 225 123 59 37 33 25 112 146 88 141 64 5 7 2 0 0 0 0 0 0 0 0 0 0 0 0 0 0 0 0 0
0 10 14 13 12 20 17 13 20 29 30 13 7 5 10 17 26 41 132 148 140 246 150 121 95 74 53 83 177 188 224 116 115 40 14 14 0 0 0 0 0 0 0 0 0 0 0 0 0 0 0 0 0 0
9 3 7 7 4 4 13 20 21 19 17 13 27 13 12 20 39 96 129 178 214 139 97 59 33 20 27 211 246 238 157 9 0 0 0 0 0 0 0 0 0 0 0 0 0 0 0 0 0 0 0 0 0 0
5 5 5 6 1 2 1 4 4 9 11 19 30 30 22 54 103 69 89 153 198 134 83 64 44 26 53 145 372 319 173 101 38 1 0 0 0 0 0 0 0 0 0 0 0 0 0 0 0 0 0 0 0 0
7 6 6 6 4 1 9 9 11 11 10 11 10 4 6 8 23 24 30 36 69 95 85 60 43 60 55 135 279 387 325 187 1 13 6 4 33 1 0 0 0 0 0 0 0 0 0 0 0 0 0 0 0 0
2 4 4 3 3 4 6 9 6 5 3 1 1 0 0 0 3 6 15 10 12 20 25 16 40 81 67 57 57 327 381 246 103 1 21 3 3 0 25 0 0 0 0 0 0 0 0 0 0 0 0 0 0 0
3 3 0 2 1 2 2 0 0 0 0 0 0 0 0 0 0 0 0 0 1 4 3 3 24 64 83 44 41 37 138 192 75 6 25 9 2 18 24 0 0 0 0 0 0 0 0 0 0 0 0 0 0 0
4 6 6 1 0 0 2 0 1 4 8 10 9 7 6 3 2 5 7 6 1 3 8 7 13 23 23 3 12 24 1 66 1 0 0 0 0 0 16 2 0 1 0 0 0 0 0 0 0 0 0 0 0 0
CIN
0 0 0 0 0 0 0 0 0 0 0 0 0 0 0 0 0 0 0 0 0 0 0 0 0 0 0 0 0 0 0 0 0 0 0 0 0 -1 0 0 0 -3 -3 -7 -5 -3 -51 -8 -2 -7 -5 -8 -14 -17
0 0 0 0 0 0 0 0 0 0 0 0 0 0 0 0 0 0 0 0 0 0 0 0 0 0 0 0 0 0 0 0 0 0 0 0 0 0 0 0 -7 -3 -5 -2 -5 -6 -3 0 -1 -9 -3 -5 -8 -3
0 0 0 0 0 0 0 0 0 0 0 0 0 0 0 0 0 0 0 0 0 0 0 0 0 0 0 0 0 0 0 0 0 0 0 0 0 0 -4 -3 -1 -4 -4 -2 -2 -3 -10 -7 -7 -6 -7 -5 -8 -4
0 0 0 0 0 0 0 0 0 0 0 0 0 0 0 0 0 0 0 0 0 0 0 0 0 0 0 0 0 0 0 0 0 0 -2 -2 -3 -2 -3 -3 -3 -6 -2 -2 -2 0 0 -11 -11 -12 -36 -35 -8 -3
0 0 0 0 0 0 0 0 0 0 0 0 0 0 0 0 0 0 0 0 0 0 0 0 0 0 0 0 0 0 0 0 0 -4 -4 -4 -2 -3 -3 -2 -23 -3 -1 -1 -1 -1 -1 0 -1 -1 -2 -2 -2 -1
0 0 0 0 0 0 0 0 0 0 0 0 0 0 0 0 0 0 0 0 0 0 0 0 0 0 0 0 0 0 0 0 0 -2 -3 -3 -5 -2 -3 -2 -5 -2 -9 -29 0 -1 -3 0 -11 -2 -2 -3 -8 -1
0 0 0 0 0 0 0 0 0 0 0 0 0 0 0 0 0 0 0 0 0 0 0 0 0 0 0 0 0 0 0 0 0 -4 -2 -3 -2 -2 -1 -2 -4 -3 -3 -10 -24 0 0 0 0 -3 -3 -4 -2 -2
0 0 0 0 0 0 0 0 0 0 0 0 0 0 0 0 0 0 0 0 0 0 0 0 0 0 0 0 -3 -2 -3 -6 -1 -9 -1 -2 -12 -1 -1 -2 -6 0 0 -3 -2 -1 -1 -1 -1 -1 -1 -1 -1 0
0 0 0 0 0 0 0 0 0 0 0 0 0 0 0 0 0 0 0 0 0 0 0 0 0 -3 0 -1 -4 -3 -1 -4 -4 -1 -4 -2 -3 -1 -1 -1 0 0 -1 -1 -2 -2 -1 -1 0 -1 0 0 0 0
0 0 0 0 0 0 0 0 0 0 0 0 0 0 -1 0 0 0 -1 -1 0 -1 0 0 0 -3 0 -2 -2 -1 -2 -4 -4 -4 -4 -3 -4 -2 -2 0 0 -1 -2 -1 -1 -1 0 0 0 0 0 0 0 0
0 0 0 0 0 0 0 0 0 0 0 0 0 0 0 0 0 0 -1 0 -1 0 0 0 0 -3 0 -2 -6 -1 -12 -4 -1 -4 -2 -18 -3 -7 -1 0 -1 0 0 0 0 0 -1 0 0 0 0 0 0 0
0 0 0 0 0 0 0 0 0 0 0 0 0 0 0 0 0 0 0 0 0 0 0 0 -2 0 -2 0 -2 -5 -2 -3 -1 -4 -1 -1 -13 0 -1 -1 -1 0 0 0 0 0 -1 0 -1 0 0 0 0 0
0 0 0 0 0 0 0 0 0 0 0 0 0 0 0 0 0 0 0 0 -1 -1 -1 -25 -2 -2 -2 -1 -2 -3 -1 -2 -2 -2 -3 -3 -3 -1 -1 -1 -2 0 0 0 0 0 -1 -1 0 0 0 0 0 0
0 0 0 0 0 0 0 0 0 0 0 0 0 0 0 0 0 0 0 -2 -3 -20 -35 -40 -4 -3 -3 -4 -4 -6 -2 -4 -3 -2 -3 -11 -8 0 -1 -1 -2 0 0 0 0 0 0 0 -1 -3 -5 -2 0 0
0 0 0 0 0 0 0 0 0 0 0 0 0 0 0 0 0 0 0 0 0 -33 -2 -24 -26 -2 -3 -4 -2 -5 -1 -2 -3 -3 -7 -11 -5 -1 -1 -1 -2 0 0 0 0 0 0 0 -1 -1 -1 0 0 0
0 0 0 0 0 0 0 0 0 0 0 0 0 -1 -1 -1 -3 -1 0 -1 -9 -13 -3 -8 -8 -3 -3 -3 -2 -1 -4 -3 -4 -3 -5 -16 -6 -1 -1 0 0 0 0 0 0 0 0 0 0 -1 -2 -2 0 -1
0 0 0 0 0 0 0 0 0 0 0 0 0 0 -2 -1 -2 -2 -2 -2 -3 -7 -17 -4 -6 -2 -3 -2 -2 -9 -4 -3 -30 -3 -12 -9 -11 -2 -13 -1 -1 0 0 0 0 0 0 0 0 0 0 0 0 0
0 0 0 0 0 -1 -3 0 0 0 0 0 -1 -2 -3 -2 0 0 -2 -1 -25 -7 -6 -14 -1 -3 -2 -2 -2 -2 -2 -18 -5 -6 -4 -3 -3 -1 -1 -26 -1 0 0 0 0 0 0 0 0 0 0 0 0 0
0 0 0 0 0 0 0 0 0 0 0 -2 -3 -3 -2 -2 -2 -1 0 -2 -23 -17 -16 -2 -5 -3 -5 -4 -11 -18 -9 -11 -8 -3 -1 -7 -1 -1 -6 -4 -11 -1 -1 0 0 0 0 0 0 0 0 0 0 0
0 0 0 0 -2 0 0 0 0 0 0 -2 -2 -2 -3 -2 -2 -2 0 0 -51 -25 -13 -4 -4 -2 -5 -3 -4 -4 -2 -3 -7 -2 -4 -4 -14 -2 -2 -3 -3 -8 -4 0 0 0 0 0 0 0 0 0 0 0
0 0 0 0 -2 0 0 0 0 0 -1 -1 -2 -1 -1 -2 -2 -2 -17 -24 -9 -2 -7 -3 -4 -6 -2 -1 -2 -4 -2 -2 -2 -2 -5 -2 -4 -15 -24 -2 -13 -2 -1 -1 0 0 0 0 0 0 0 0 0 0
0 -1 -1 -1 -1 0 -1 0 -1 -1 -1 -1 -1 -2 -1 -1 -1 -3 -17 -9 -1 -1 -2 -10 -4 -3 -6 -2 -4 -8 -5 -2 -2 -3 -11 -5 -2 -1 -9 -3 -7 -1 -3 0 0 0 0 0 0 0 0 0 0 0
-3 -7 -1 0 0 0 0 -1 0 -1 0 -1 -1 -1 -1 -10 -12 -3 -1 0 0 0 -2 -2 -2 -3 -6 -10 -9 -1 -2 -2 -2 -2 -5 -3 -3 -5 -12 -3 -5 -1 -2 -2 0 0 0 0 0 0 0 0 0 0
-6 -1 0 0 0 0 -1 0 -1 -1 -1 -1 -1 -1 -1 -2 -5 -4 0 0 0 0 -2 -2 -1 -2 -1 -2 -2 -2 -2 -2 -2 -2 -2 -2 -2 -4 -1 -3 -2 -4 -1 0 0 0 0 0 0 0 0 0 0 0
0 -1 0 -1 0 0 -1 -1 -1 -1 -1 -1 -3 -1 -1 -3 -3 -2 -2 -2 -3 -5 -4 -1 -1 -1 -1 -3 -2 -3 -3 -4 -2 -6 -43 -3 -3 0 0 0 0 0 0 0 0 0 0 0 0 0 0 0 0 0
0 0 -1 -1 0 -1 -1 0 -1 -2 0 -2 -6 -1 -2 -3 -3 -2 0 -1 -2 -2 -3 -14 -11 -11 -3 -2 -2 -5 -2 -2 -2 -5 -10 -3 -2 0 0 0 0 0 0 0 0 0 0 0 0 0 0 0 0 0
-1 0 -1 -1 -2 -1 -1 -2 -2 -1 -1 -3 -4 -9 -2 -1 -2 -3 -3 -1 -15 -8 -3 -1 -3 -2 -1 -7 -6 -1 -4 -21 -19 -9 -3 -3 -1 0 0 0 0 0 0 0 0 0 0 0 0 0 0 0 0 0
-1 -1 -1 0 -1 -2 -1 -1 -1 -2 -1 -1 -1 -3 -1 -2 -10 -4 -12 -16 -8 -1 -1 -3 -2 -3 -3 -1 -2 -3 -2 -11 0 0 0 0 0 0 0 0 0 0 0 0 0 0 0 0 0 0 0 0 0 0
0 -1 -1 -1 -1 -2 -1 -1 -2 -2 -2 -3 -1 -3 -4 -5 -2 -5 -2 -2 -2 -2 -3 -1 -2 -1 -2 -2 -6 -5 -5 -2 -6 -24 0 0 0 0 0 0 0 0 0 0 0 0 0 0 0 0 0 0 0 0
-1 -2 -1 -1 -1 -1 -1 -2 -2 -2 -4 -3 -2 -2 -3 -12 -2 -4 -2 -2 -2 -1 -2 -3 -9 -2 -1 -3 -3 -3 -9 -16 -56 -8 -9 -7 -5 -10 0 0 0 0 0 0 0 0 0 0 0 0 0 0 0 0
-2 -1 -1 -1 -2 -2 -3 -2 -2 -3 -1 -1 -1 -1 -1 -1 -1 -5 -4 -3 -3 -3 -3 -7 -11 -1 -2 -3 -1 -7 -2 -6 -24 -23 -18 -5 -8 0 -8 -1 0 0 0 0 0 0 0 0 0 0 0 0 0 0
-2 -1 -1 -2 -1 -4 -1 0 0 0 0 0 0 0 0 0 0 0 0 0 -3 -4 -3 -3 -7 -3 -2 -4 -6 -2 -15 -3 -42 -41 -9 -5 -26 -8 -4 0 0 0 0 0 0 0 0 0 0 0 0 0 0 0
-1 -1 -1 -1 0 -1 -1 0 -1 -1 -2 -2 -2 -3 -3 -3 -3 -4 -5 -4 -1 -3 -3 -6 -5 -7 -5 -5 -4 -4 -1 -3 -3 0 0 0 0 0 -25 -6 -1 -4 0 0 0 0 0 0 0 0 0 0 0 0
Wind_Speed
13 18 23 25 25 24 24 23 23 22 21 21 21 21 21 21 21 18 16 18 17 17 15 14 14 14 14 15 17 18 14 16 17 16 17 19 17 19 16 13 12 11 10 7 12 16 28 31 26 26 26 27 28 29
5 9 16 24 24 24 24 24 23 23 21 21 21 21 21 22 21 19 17 19 18 14 16 15 15 15 14 16 17 17 17 16 18 15 16 14 14 14 19 15 14 13 17 6 4 9 40 37 30 31 34 35 33 32
11 11 10 18 22 23 23 23 23 22 21 22 21 22 22 22 21 19 18 20 16 16 13 11 10 12 13 13 14 15 15 15 16 16 16 16 14 15 18 20 16 14 18 13 8 5 35 36 32 33 34 36 37 38
7 10 13 17 18 20 22 23 22 20 21 22 22 22 23 22 21 20 18 20 19 18 15 12 11 11 12 14 13 14 15 14 15 15 16 16 18 19 16 17 14 20 18 22 12 14 37 25 37 39 41 43 44 45
6 6 8 17 18 19 21 21 19 18 21 22 22 23 23 23 22 21 19 18 18 18 17 16 10 9 9 11 11 11 11 12 12 11 14 16 16 18 16 17 18 20 22 21 17 16 14 27 38 37 35 35 38 43
12 8 8 12 13 18 20 19 17 18 20 22 23 24 24 23 23 20 14 15 19 20 16 15 13 9 8 9 9 9 9 10 10 12 14 18 17 17 19 16 17 24 28 26 16 9 9 20 23 31 36 43 44 40
14 12 11 13 13 16 17 17 17 17 20 22 23 24 24 24 22 20 19 19 23 20 15 16 13 9 7 7 7 9 10 9 10 10 12 15 15 15 16 15 27 30 21 13 11 12 11 16 20 28 37 34 34 38
15 13 13 13 14 15 17 16 16 18 20 22 24 25 25 25 22 18 15 19 20 17 15 17 13 11 6 6 6 10 9 9 10 11 12 14 14 12 18 24 32 27 16 19 16 20 13 12 10 13 22 21 27 34
16 14 14 13 13 15 15 14 15 19 21 23 26 25 19 16 17 18 18 19 16 17 18 14 14 12 9 7 11 11 11 10 11 8 10 12 14 14 21 28 29 28 14 18 26 31 37 38 39 43 41 40 36 38
16 15 13 11 13 14 13 12 15 18 21 24 19 15 15 16 18 19 17 15 14 13 15 17 15 14 10 8 8 12 11 10 10 10 10 10 12 15 22 23 25 22 13 20 21 32 37 36 38 40 36 25 10 12
16 14 12 11 12 12 11 12 15 18 17 15 15 16 19 17 18 16 17 16 15 19 15 15 11 13 11 11 11 11 12 11 10 10 9 10 11 16 21 24 23 23 20 20 22 27 31 24 10 14 16 14 8 16
15 14 12 11 11 11 10 11 14 15 18 18 19 19 18 16 16 16 14 14 14 15 13 10 10 13 13 13 11 12 12 10 11 10 10 10 12 17 20 23 24 25 26 24 26 24 17 15 10 22 28 20 14 13
14 13 11 11 11 10 9 10 13 16 15 16 17 17 16 15 17 16 15 16 16 15 13 10 9 11 13 12 11 11 12 11 13 10 10 11 13 16 19 23 23 27 28 28 29 24 19 27 27 27 24 24 17 21
14 12 10 9 9 8 7 10 11 13 15 16 16 18 16 14 17 16 16 15 15 17 11 8 9 12 12 11 12 13 13 11 12 9 10 10 12 15 18 22 24 26 29 28 28 25 22 28 30 31 35 35 27 24
12 9 8 8 7 5 6 9 10 13 14 16 16 17 15 17 18 17 15 15 13 15 12 12 16 14 13 13 12 12 12 11 9 10 13 11 13 15 17 21 23 25 27 28 28 29 24 31 34 36 37 39 35 20
7 7 11 6 4 3 6 8 13 14 15 17 17 17 19 20 18 14 14 13 13 11 13 15 15 15 14 14 12 10 12 11 11 13 12 11 13 15 16 19 21 23 25 26 27 28 30 29 31 34 33 35 34 36
5 14 4 2 1 2 6 12 13 14 16 17 18 17 20 21 20 17 12 13 14 12 12 15 15 16 15 16 15 14 15 12 13 14 14 14 14 16 17 16 18 21 23 24 25 26 28 29 30 32 35 36 37 35
14 6 2 3 0 6 12 14 15 16 18 18 19 19 17 18 17 17 17 17 17 16 16 17 20 18 17 15 14 19 11 10 13 16 16 16 14 15 16 15 15 18 21 22 24 24 25 28 29 31 33 33 35 35
5 2 5 4 4 11 13 15 15 19 18 19 18 21 20 19 19 20 22 20 17 18 20 18 18 18 18 25 14 15 17 15 13 14 16 16 13 14 17 16 14 15 19 20 22 24 23 24 27 28 30 32 32 35
2 4 5 2 11 13 14 15 14 18 19 18 17 17 19 21 23 15 21 20 18 18 20 19 23 23 23 23 20 19 15 17 18 14 17 16 19 13 13 15 12 16 14 19 18 22 24 24 25 27 28 29 30 31
5 5 4 9 13 14 16 15 14 16 17 18 17 18 21 20 20 15 18 18 15 15 22 22 25 32 31 24 20 19 20 19 21 19 16 22 21 15 14 17 13 12 18 19 21 19 21 24 24 25 27 28 28 30
8 2 9 11 13 13 16 15 15 17 17 18 19 19 21 19 15 17 19 20 19 22 24 32 33 31 30 21 25 24 24 22 18 22 19 20 20 19 16 12 6 16 15 18 19 20 21 22 24 24 25 26 26 26
1 8 11 11 13 13 17 14 14 15 19 19 16 15 15 15 17 16 19 28 28 31 33 33 33 31 32 31 29 28 22 12 9 17 22 23 17 17 5 16 16 16 18 14 16 18 19 19 20 22 24 24 25 26
7 10 12 12 14 17 14 15 17 19 18 15 18 18 19 21 7 5 24 25 29 28 30 31 30 30 29 20 30 25 2 6 7 10 19 16 17 13 17 17 13 14 16 14 14 15 17 20 20 22 24 24 24 25
12 13 14 18 18 17 17 19 10 13 21 19 23 22 20 14 21 21 23 23 27 24 19 9 8 19 24 19 19 10 3 3 3 11 21 13 16 18 16 13 11 13 13 12 13 15 17 19 19 20 22 24 22 24
21 20 18 17 17 19 21 19 20 21 22 16 20 20 20 19 21 18 14 15 16 17 13 12 13 14 19 20 13 10 8 10 11 9 10 11 15 18 13 11 10 12 13 14 16 16 16 17 18 19 20 19 20 22
20 19 19 22 21 21 22 22 21 21 16 16 17 14 16 15 16 15 15 17 17 16 11 10 10 12 15 14 17 10 10 9 11 13 10 10 13 15 15 13 14 13 14 15 14 15 16 15 16 17 19 19 20 22
20 18 20 18 22 22 21 20 19 20 17 17 16 16 15 17 16 16 17 16 14 11 10 11 14 17 18 14 9 6 9 5 7 9 13 13 15 14 15 14 13 13 14 13 14 14 15 15 15 17 18 19 20 22
18 18 18 18 18 18 10 12 18 16 15 17 21 19 18 17 15 14 16 15 13 12 15 16 16 15 14 11 8 9 11 6 8 7 5 18 21 16 11 11 12 10 11 12 13 16 16 17 18 17 16 17 17 17
20 14 17 19 9 16 2 12 20 20 23 24 23 25 25 26 22 22 19 17 17 16 16 15 18 20 16 11 11 11 11 12 13 18 6 4 14 10 4 6 8 9 10 9 11 12 14 12 14 12 13 13 14 15
19 20 23 26 26 25 25 26 27 27 28 28 29 30 30 29 30 30 28 25 27 24 19 17 26 25 21 19 16 13 12 11 4 13 25 19 17 27 25 3 8 8 10 8 9 9 10 11 10 11 11 11 14 14
21 21 21 23 24 24 21 20 27 28 28 10 4 5 10 11 22 30 22 12 10 29 31 29 27 28 28 23 19 17 15 13 3 4 27 26 25 22 8 4 6 3 17 13 12 8 9 9 9 12 11 10 11 12
24 24 23 23 23 19 18 16 18 2 6 5 7 7 8 11 20 20 16 13 23 32 32 32 31 27 26 25 25 16 14 8 5 12 16 19 18 19 16 4 6 20 11 8 6 8 9 9 10 13 13 13 13 13
Wind_Direction
356 345 321 304 301 302 306 310 314 318 319 319 317 314 314 314 313 305 328 326 314 319 357 340 339 343 4 360 347 356 27 25 20 21 16 13 13 14 16 32 23 23 10 348 354 330 305 306 317 309 307 310 307 305
10 4 347 320 311 312 314 319 325 326 322 319 319 314 313 313 310 305 319 329 317 346 325 315 308 324 353 353 1 18 13 22 21 31 30 35 29 31 12 25 40 35 20 13 8 259 294 309 316 309 303 301 300 298
333 340 354 335 320 320 323 323 324 327 325 318 313 312 312 311 308 306 308 320 329 338 358 24 33 25 23 25 8 18 31 38 32 27 32 30 34 26 13 12 21 26 17 11 350 340 301 304 315 309 309 302 298 295
319 328 330 326 331 328 320 322 326 333 324 318 310 307 310 310 305 300 314 316 299 312 329 358 5 30 25 16 23 24 35 41 36 25 6 5 357 5 11 11 24 13 8 358 345 340 292 325 287 286 286 287 284 284
302 318 328 315 320 325 322 324 334 336 324 316 312 309 308 306 302 298 315 326 326 318 321 345 29 29 52 33 43 45 49 38 38 36 8 358 356 356 5 10 12 16 3 354 340 322 317 268 277 272 267 267 265 272
300 306 315 322 325 321 318 326 333 330 324 317 312 309 307 306 302 313 337 341 324 320 330 337 354 15 45 41 46 43 44 37 38 25 7 342 356 358 356 13 16 4 353 352 351 295 298 271 265 271 274 284 280 266
298 301 309 314 319 320 323 322 322 324 319 313 308 309 305 305 308 312 315 318 315 314 333 329 345 18 33 40 45 39 28 35 30 30 18 356 3 6 1 2 355 355 4 358 357 353 334 352 339 275 284 271 270 269
298 300 302 309 314 318 322 322 320 316 313 309 306 305 307 302 303 317 332 325 322 323 327 324 337 352 50 34 37 17 28 36 33 31 19 360 5 13 357 353 350 360 13 16 11 8 359 346 331 337 282 291 269 275
297 301 303 307 312 313 319 324 320 311 310 306 300 301 323 334 325 319 324 322 325 316 314 324 323 338 10 4 352 7 7 16 17 32 24 13 2 359 354 348 355 1 15 12 8 2 347 343 343 316 313 307 286 288
293 297 303 309 312 317 323 324 321 318 311 305 317 330 331 330 330 326 325 323 321 318 315 308 315 324 344 5 6 356 4 8 17 17 29 21 6 4 357 359 3 11 22 17 15 7 359 356 353 328 309 290 283 276
292 296 301 307 312 319 325 327 323 318 321 328 327 322 321 325 325 325 322 316 313 308 311 306 313 315 332 336 343 353 355 8 10 16 15 17 17 2 360 360 11 16 23 23 21 16 15 21 320 318 308 299 328 8
288 292 297 301 307 314 323 326 328 324 318 319 317 320 324 323 320 317 319 321 317 316 328 321 317 304 332 324 336 343 347 1 0 12 7 11 10 360 4 5 12 13 15 21 21 24 31 29 10 25 320 327 312 11
287 290 290 294 302 310 315 320 323 322 328 329 326 323 322 319 308 312 309 313 312 316 323 321 318 316 322 321 334 341 341 346 353 4 2 9 357 0 6 5 10 2 5 9 17 32 39 35 35 35 34 31 28 31
284 286 288 292 298 305 314 320 324 325 322 323 323 316 316 319 312 309 309 320 319 321 327 323 316 316 315 324 325 329 332 345 352 2 3 13 358 353 4 3 6 4 356 4 12 29 41 35 32 33 33 36 42 45
282 279 285 291 294 298 310 323 323 321 318 316 317 314 313 308 316 318 317 316 314 314 316 319 306 308 305 314 322 324 334 340 356 359 356 7 353 346 360 1 4 1 359 1 5 10 36 24 24 23 28 34 47 48
275 291 288 287 284 292 314 321 314 313 313 308 307 313 313 312 307 313 317 316 318 310 309 309 304 305 299 312 316 320 328 338 352 350 9 8 345 339 353 359 7 3 0 351 352 2 11 27 30 31 41 42 46 47
264 293 279 230 266 310 315 310 311 305 307 307 307 297 300 309 312 315 315 309 310 297 289 300 296 291 300 301 308 312 311 334 334 347 352 349 338 336 346 359 8 9 359 2 359 5 7 17 26 28 25 30 34 47
287 293 149 141 105 311 305 307 306 305 301 299 303 306 302 301 304 304 305 295 289 283 283 287 296 287 290 305 309 299 324 342 326 333 337 337 331 334 342 358 11 11 3 2 358 4 12 8 14 13 15 23 25 32
278 195 145 147 298 308 306 306 304 304 300 301 299 297 300 301 292 294 290 288 287 285 284 284 286 289 288 277 305 305 304 317 329 333 335 332 326 330 333 346 0 13 3 1 0 348 6 16 13 15 16 21 26 24
181 146 149 252 299 306 307 309 312 304 307 308 303 299 297 293 287 300 286 276 275 276 271 271 272 276 278 274 289 294 311 309 312 326 325 328 306 324 345 345 5 356 13 356 9 5 353 2 4 10 18 24 22 24
279 268 260 289 299 305 305 311 311 314 311 307 313 304 296 293 287 296 285 275 267 265 267 271 273 247 247 284 291 295 298 305 300 312 322 300 296 324 334 333 350 1 342 341 343 3 5 359 359 8 9 13 20 19
284 241 288 288 302 306 304 308 312 313 313 313 307 302 296 299 301 289 279 270 262 265 267 253 235 238 259 287 284 287 285 295 312 297 300 303 300 307 322 344 30 337 348 340 345 352 0 1 4 9 13 15 21 23
263 281 288 290 296 300 299 312 315 319 303 300 308 310 308 308 288 285 269 248 257 241 219 220 237 252 258 264 269 272 291 306 319 307 294 289 304 312 19 328 328 327 323 352 351 353 0 13 15 11 13 17 17 18
287 274 289 295 289 285 308 297 294 288 296 304 293 293 281 260 54 73 198 260 234 206 209 218 249 258 263 288 259 276 293 167 166 319 298 308 306 326 319 319 341 336 332 349 359 2 6 359 9 7 10 14 21 22
278 281 282 265 263 273 279 262 109 127 207 167 194 216 226 289 246 253 243 247 219 249 275 312 315 284 271 291 295 315 55 110 352 320 271 307 308 311 325 338 345 340 347 2 4 1 359 1 9 12 16 18 24 24
235 239 252 261 263 250 242 258 249 188 221 289 255 259 263 275 272 284 304 293 290 285 299 302 303 299 281 281 308 319 330 312 313 322 309 320 313 312 337 343 341 345 345 348 344 351 0 11 11 19 25 33 33 30
236 242 242 224 227 226 227 214 196 237 282 285 280 299 289 300 301 300 305 295 299 298 314 319 322 310 305 310 298 328 322 322 299 304 305 321 321 333 348 345 318 324 328 334 351 1 2 21 30 31 29 28 26 26
245 255 245 255 231 229 240 262 268 256 272 277 284 286 305 291 305 307 298 299 306 315 325 322 312 305 307 321 333 336 325 337 304 301 308 310 303 326 350 357 348 332 331 344 339 9 27 37 37 35 35 31 25 22
271 273 268 271 268 272 333 318 275 293 306 292 244 270 303 312 313 332 306 313 316 315 302 299 304 317 325 341 347 326 307 327 314 306 288 279 285 304 354 355 352 0 36 15 344 355 12 11 21 37 48 39 36 41
271 295 278 272 312 290 206 309 277 283 274 269 281 272 276 260 221 287 301 305 305 305 308 309 299 291 308 330 331 318 303 301 292 278 295 289 303 323 37 68 42 37 357 47 61 47 41 68 64 76 71 62 60 51
276 268 259 243 238 224 239 251 257 261 256 247 254 268 263 259 259 256 266 284 276 281 293 297 264 265 288 298 307 318 310 300 306 277 264 294 302 255 231 359 350 21 346 55 47 36 76 86 88 75 71 61 45 48
266 267 269 263 261 258 281 291 266 253 252 326 330 327 324 319 301 281 298 308 299 263 250 258 266 263 258 282 297 307 312 310 342 140 197 261 274 271 327 349 2 44 162 329 345 66 86 85 78 50 50 54 56 49
254 253 260 265 270 293 302 311 315 20 9 4 354 348 338 327 310 308 313 304 271 245 244 240 242 265 267 275 275 306 310 335 328 287 284 291 293 286 294 83 181 259 318 356 55 45 51 43 41 34 40 42 41 36